Little Neck, NY (11363)

6:33 AM EDT on April 27, 2015 (GMT -0400)
Oakland Gardens | | Change Station
CLOSE
Current Station
Personal Weather Station
Location: New York, NY
Elevation: 95 ft
Nearby Weather Stations

Elev 95 ft 40.75 °N, 73.75 °W | Updated 3 minutes ago

Overcast
Overcast
47.8 °F
Feels Like 48 °F
N
1.0
Wind Variable Wind from South
Gusts 2.0 mph

Today
High -- | Low -- °F
--% Chance of Precip.
Yesterday
High -- | Low -- °F
Precip. -- in
5:59 AM 7:46 PM
Waxing Gibbous, 64% visible
Pressure 29.66 in
Visibility 10.0 miles
Clouds Overcast 7000 ft
Windchill 48 °F
Dew Point 35 °F
Humidity 61%
Rainfall 0.00 in
Snow Depth Not available.
UV 0 out of 12
Pollen 10.20 out of 12
Air Quality Not available.
Flu Activity Widespread
METAR KLGA 270951Z 32006KT 10SM OVC070 09/01 A2966 RMK AO2 SLP044 T00940006 $

More Conditions Fewer Conditions

Pressure 29.66 in
Visibility 10.0 miles
Clouds Overcast 7000 ft
Windchill 48 °F
Dew Point 35 °F
Humidity 61%
Rainfall 0.00 in
Snow Depth Not available.
UV 0 out of 12
Pollen 10.20 out of 12
Air Quality Not available.
Flu Activity Widespread
METAR KLGA 270951Z 32006KT 10SM OVC070 09/01 A2966 RMK AO2 SLP044 T00940006 $

More Conditions Fewer Conditions

10-Day Weather Forecast

Almanac

Astronomy

Apr. 27, 2015 Rise Set
Actual Time
Civil Twilight
Nautical Twilight
Astronomical Twilight
Moon
Length of Visible Light
Length of Day
Tomorrow will be .
, % of the Moon is Illuminated

Today's Extremes

State Highs State Lows

Community

WunderPhotos

Upload Photos

1,817,278 photos uploaded!

WunderBlogs® & News

Nearby

Air Quality

  Air Quality AQ Index Pollutant
Not available.

Snow Depth

Station Depth Elevation

Earthquake Activity

City Distance Mag. Time & Date
Minimum magnitude displayed is 2.5.

Coastal Water Temperatures

Place Temperature

Stations

Nearby Weather Stations

Station Location Temp. Windchill Dew Point Humidity Wind Precip. Elev Updated Type